Location: Asheville, NC
(35.6000°N, 82.5500°W)
Time: 01:30:37
(UTC-05:00)

Vanguard 2 - Pass Details

Date: 16 February 2018
Orbit: 553 x 2939 km, 32.9° (Epoch: 23 February)

Event Time Altitude Azimuth Distance (km) Brightness Sun altitude
Rises 18:44:41 0° 238° (WSW) 5,320 13.3 -7.1°
Reaches altitude 10° 18:48:58 10° 233° (SW) 3,914 12.3 -7.9°
Maximum altitude 18:57:50 45° 165° (SSE) 1,482 8.9 -9.7°
Enters shadow 19:02:52 13° 95° (E) 2,290 9.3 -10.7°
Drops below altitude 10° 19:03:21 10° 93° (E) 2,449 - -10.8°
Sets 19:05:28 0° 86° (E) 3,190 - -11.3°
